Location: Cisewo
(53.3833°N, 14.9000°E)
Time: 11:18:59
(UTC+00:00)

SL-16 R/B - Pass Details

Date: 18 April 2021
Orbit: 840 x 849 km, 71.0° (Epoch: 14 May)

Event Time Altitude Azimuth Distance (km) Brightness Sun altitude
Rises 22:11:30 0° 320° (NW) 3,424 6.4 -24.6°
Reaches altitude 10° 22:14:33 10° 304° (NW) 2,482 5.2 -24.7°
Maximum altitude 22:18:33 20° 260° (W) 1,867 4.0 -24.9°
Enters shadow 22:19:40 19° 244° (WSW) 1,919 3.9 -24.9°
